When you browse on this site, cookies collect data to enhance your experience and personalize the content and advertising you see.
Visit our Privacy Policy to learn more. By continuing to use the site, you agree to this use of cookies and data.
  • In Denmark
  • List of Countries
  • For 7 days
  • Water Temperature
  • Satellite Maps
  • Weather Map
  • Weather Widgets
  • user-avatar
    Login

    Hourly Weather Brisbane

    Today, 18 June, Tuesday

    Time Temperature Precipitation Wind Pressure Humidity
    00:00 +13°C° 0 mm 2 mps 761 mmHg 62%
    01:00 +12°C° 0 mm 2 mps 761 mmHg 63%
    02:00 +12°C° 0 mm 2 mps 761 mmHg 65%
    03:00 +12°C° 0 mm 2 mps 761 mmHg 66%
    04:00 +12°C° 0 mm 2 mps 761 mmHg 67%
    05:00 +10°C° 0 mm 2 mps 761 mmHg 68%
    06:00 +10°C° 0 mm 2 mps 761 mmHg 69%
    07:00 +10°C° 0 mm 2 mps 761 mmHg 70%
    08:00 +13°C° 0 mm 2 mps 761 mmHg 63%
    09:00 +16°C° 0 mm 2 mps 761 mmHg 55%
    10:00 +18°C° 0 mm 2 mps 761 mmHg 48%
    11:00 +20°C° 0 mm 2 mps 761 mmHg 44%
    12:00 +21°C° 0 mm 2 mps 760 mmHg 41%
    13:00 +23°C° 0 mm 2 mps 760 mmHg 37%
    14:00 +23°C° 0 mm 1 mps 760 mmHg 41%
    15:00 +23°C° 0 mm 1 mps 759 mmHg 44%
    16:00 +22°C° 0 mm 1 mps 759 mmHg 47%
    17:00 +21°C° 0 mm 1 mps 760 mmHg 51%
    18:00 +19°C° 0 mm 1 mps 760 mmHg 55%
    19:00 +18°C° 0 mm 1 mps 761 mmHg 59%
    20:00 +16°C° 0 mm 1 mps 761 mmHg 61%
    21:00 +16°C° 0 mm 1 mps 761 mmHg 63%
    22:00 +15°C° 0 mm 1 mps 761 mmHg 65%
    23:00 +15°C° 0 mm 1 mps 761 mmHg 67%

    Tomorrow, 19 June, Wednesday

    Time Temperature Precipitation Wind Pressure Humidity
    00:00 +14°C° 0 mm 2 mps 761 mmHg 69%
    01:00 +14°C° 0 mm 2 mps 760 mmHg 71%
    02:00 +13°C° 0 mm 2 mps 760 mmHg 73%
    03:00 +13°C° 0 mm 2 mps 760 mmHg 74%
    04:00 +13°C° 0 mm 2 mps 760 mmHg 76%
    05:00 +13°C° 0 mm 2 mps 761 mmHg 77%
    06:00 +13°C° 0 mm 2 mps 761 mmHg 78%
    07:00 +12°C° 0 mm 2 mps 761 mmHg 79%
    08:00 +15°C° 0 mm 2 mps 762 mmHg 71%
    09:00 +17°C° 0 mm 2 mps 762 mmHg 64%
    10:00 +19°C° 0 mm 2 mps 762 mmHg 56%
    11:00 +20°C° 0 mm 2 mps 761 mmHg 52%
    12:00 +23°C° 0 mm 1 mps 760 mmHg 49%
    13:00 +24°C° 0 mm 1 mps 760 mmHg 45%
    14:00 +24°C° 0 mm 1 mps 760 mmHg 49%
    15:00 +23°C° 0 mm 2 mps 760 mmHg 53%
    16:00 +21°C° 0 mm 2 mps 760 mmHg 58%
    17:00 +20°C° 0.1 mm 3 mps 761 mmHg 66%
    18:00 +19°C° 0.1 mm 3 mps 761 mmHg 74%
    19:00 +17°C° 0.1 mm 3 mps 762 mmHg 82%
    20:00 +17°C° 0.1 mm 3 mps 762 mmHg 84%
    21:00 +16°C° 0.1 mm 3 mps 762 mmHg 85%
    22:00 +16°C° 0.1 mm 3 mps 763 mmHg 86%
    23:00 +16°C° 0 mm 3 mps 762 mmHg 87%

    Day after tomorrow, 20 June, Thursday

    Time Temperature Precipitation Wind Pressure Humidity
    00:00 +14°C° 0 mm 3 mps 762 mmHg 87%
    01:00 +15°C° 0 mm 2 mps 762 mmHg 88%
    02:00 +15°C° 0 mm 2 mps 762 mmHg 87%
    03:00 +15°C° 0 mm 2 mps 762 mmHg 85%
    04:00 +15°C° 0 mm 2 mps 762 mmHg 84%
    05:00 +15°C° 0 mm 2 mps 762 mmHg 82%
    06:00 +15°C° 0 mm 2 mps 763 mmHg 79%
    07:00 +15°C° 0 mm 2 mps 763 mmHg 77%
    08:00 +16°C° 0 mm 2 mps 763 mmHg 72%
    09:00 +17°C° 0 mm 2 mps 763 mmHg 68%
    10:00 +18°C° 0 mm 3 mps 763 mmHg 64%
    11:00 +18°C° 0 mm 3 mps 763 mmHg 63%
    12:00 +18°C° 0 mm 3 mps 762 mmHg 63%
    13:00 +19°C° 0 mm 3 mps 762 mmHg 62%
    14:00 +19°C° 0 mm 3 mps 762 mmHg 64%
    15:00 +19°C° 0 mm 2 mps 762 mmHg 65%
    16:00 +19°C° 0 mm 2 mps 762 mmHg 66%
    17:00 +18°C° 0 mm 2 mps 762 mmHg 68%
    18:00 +18°C° 0 mm 2 mps 762 mmHg 69%
    19:00 +17°C° 0 mm 2 mps 763 mmHg 71%
    20:00 +17°C° 0 mm 2 mps 763 mmHg 73%
    21:00 +16°C° 0 mm 2 mps 763 mmHg 75%
    22:00 +16°C° 0 mm 2 mps 763 mmHg 77%
    23:00 +15°C° 0 mm 2 mps 763 mmHg 77%

    21 June, Friday

    Time Temperature Precipitation Wind Pressure Humidity
    00:00 +15°C° 0 mm 2 mps 763 mmHg 78%
    01:00 +15°C° 0 mm 2 mps 762 mmHg 78%
    02:00 +15°C° 0 mm 2 mps 762 mmHg 79%
    03:00 +14°C° 0 mm 2 mps 762 mmHg 80%
    04:00 +14°C° 0 mm 2 mps 762 mmHg 81%
    05:00 +14°C° 0 mm 2 mps 762 mmHg 79%
    06:00 +13°C° 0 mm 2 mps 763 mmHg 76%
    07:00 +13°C° 0 mm 2 mps 763 mmHg 74%
    08:00 +15°C° 0 mm 2 mps 763 mmHg 66%
    09:00 +16°C° 0 mm 2 mps 763 mmHg 58%
    10:00 +18°C° 0 mm 2 mps 763 mmHg 51%
    11:00 +19°C° 0 mm 2 mps 763 mmHg 46%
    12:00 +20°C° 0 mm 2 mps 762 mmHg 41%
    13:00 +23°C° 0 mm 2 mps 762 mmHg 37%
    14:00 +21°C° 0 mm 2 mps 762 mmHg 39%
    15:00 +21°C° 0 mm 2 mps 762 mmHg 40%
    16:00 +20°C° 0 mm 3 mps 762 mmHg 42%
    17:00 +19°C° 0 mm 3 mps 762 mmHg 49%
    18:00 +17°C° 0 mm 3 mps 763 mmHg 56%
    19:00 +14°C° 0 mm 4 mps 764 mmHg 63%
    20:00 +14°C° 0 mm 4 mps 764 mmHg 65%
    21:00 +13°C° 0 mm 3 mps 764 mmHg 67%
    22:00 +12°C° 0 mm 3 mps 765 mmHg 70%
    23:00 +12°C° 0 mm 3 mps 764 mmHg 72%

    22 June, Saturday

    Time Temperature Precipitation Wind Pressure Humidity
    00:00 +11°C° 0 mm 3 mps 764 mmHg 74%
    01:00 +11°C° 0 mm 3 mps 764 mmHg 76%
    02:00 +10°C° 0 mm 3 mps 764 mmHg 77%
    03:00 +10°C° 0 mm 3 mps 764 mmHg 78%
    04:00 +10°C° 0 mm 3 mps 764 mmHg 79%
    05:00 +9°C° 0 mm 3 mps 764 mmHg 78%
    06:00 +9°C° 0 mm 3 mps 765 mmHg 77%
    07:00 +9°C° 0 mm 2 mps 765 mmHg 76%
    08:00 +11°C° 0 mm 3 mps 765 mmHg 69%
    09:00 +13°C° 0 mm 3 mps 765 mmHg 62%
    10:00 +16°C° 0 mm 3 mps 765 mmHg 55%
    11:00 +17°C° 0 mm 3 mps 764 mmHg 53%
    12:00 +19°C° 0 mm 3 mps 764 mmHg 51%
    13:00 +20°C° 0 mm 3 mps 763 mmHg 49%
    14:00 +20°C° 0 mm 3 mps 763 mmHg 51%
    15:00 +19°C° 0 mm 3 mps 763 mmHg 53%
    16:00 +19°C° 0 mm 4 mps 763 mmHg 55%
    17:00 +17°C° 0 mm 3 mps 763 mmHg 61%
    18:00 +16°C° 0 mm 3 mps 764 mmHg 67%
    19:00 +14°C° 0 mm 3 mps 764 mmHg 72%
    20:00 +13°C° 0 mm 3 mps 764 mmHg 75%
    21:00 +12°C° 0 mm 3 mps 765 mmHg 78%
    22:00 +13°C° 0 mm 2 mps 765 mmHg 81%
    23:00 +12°C° 0.1 mm 3 mps 765 mmHg 81%

    23 June, Sunday

    Time Temperature Precipitation Wind Pressure Humidity
    00:00 +12°C° 0.1 mm 3 mps 764 mmHg 82%
    01:00 +12°C° 0.1 mm 3 mps 764 mmHg 82%
    02:00 +11°C° 0.1 mm 3 mps 764 mmHg 83%
    03:00 +11°C° 0.1 mm 3 mps 764 mmHg 84%
    04:00 +11°C° 0.1 mm 3 mps 764 mmHg 84%
    05:00 +11°C° 0.1 mm 3 mps 764 mmHg 84%
    06:00 +11°C° 0.1 mm 3 mps 764 mmHg 83%
    07:00 +11°C° 0.1 mm 3 mps 765 mmHg 83%
    08:00 +13°C° 0.1 mm 3 mps 765 mmHg 75%
    09:00 +14°C° 0.1 mm 3 mps 765 mmHg 68%
    10:00 +17°C° 0.1 mm 4 mps 765 mmHg 60%
    11:00 +17°C° 0 mm 4 mps 764 mmHg 58%
    12:00 +18°C° 0 mm 4 mps 764 mmHg 56%
    13:00 +18°C° 0 mm 4 mps 763 mmHg 54%
    14:00 +18°C° 0.2 mm 4 mps 763 mmHg 54%
    15:00 +18°C° 0.2 mm 4 mps 763 mmHg 54%
    16:00 +18°C° 0.2 mm 4 mps 763 mmHg 54%
    17:00 +17°C° 0 mm 4 mps 763 mmHg 56%
    18:00 +16°C° 0 mm 3 mps 764 mmHg 58%
    19:00 +14°C° 0 mm 3 mps 764 mmHg 60%
    20:00 +14°C° 0 mm 3 mps 764 mmHg 63%
    21:00 +13°C° 0 mm 3 mps 765 mmHg 67%
    22:00 +12°C° 0 mm 4 mps 765 mmHg 70%
    23:00 +12°C° 0 mm 4 mps 765 mmHg 73%
    Show more